Regional Weather Roundup
Issued by NWS

Home | Current Version | Previous Version | Graphics & Text | Print | Product List | Glossary On
Versions: 1 2 3 4 5 6 7 8 9 10 11 12 13 14 15 16 17 18 19 20 21 22 23 24 25 26 27 28 29 30 31 32 33 34 35 36 37 38 39 40 41 42 43 44 45 46 47 48 49 50
000
ASUS43 KLOT 200803
RWRIL

ILLINOIS REGIONAL WEATHER ROUNDUP
NATIONAL WEATHER SERVICE CHICAGO/ROMEOVILLE IL
200 AM CST MON NOV 20 2017

NOTE: "FAIR" INDICATES FEW OR NO CLOUDS BELOW 12,000 FEET WITH NO
SIGNIFICANT WEATHER AND/OR OBSTRUCTIONS TO VISIBILITY.

* THESE STATIONS ARE NOT UNDER NWS QUALITY CONTROL. THEY ALSO MAY NOT
  REPORT WEATHER SUCH AS PRECIPITATION OR FOG.

ILZ001-002-007-009-015-016-024-200900-
NORTHWEST ILLINOIS

CITY           SKY/WX    TMP DP  RH WIND       PRES   REMARKS
MOLINE         CLOUDY    35  24  64 SW7       29.97F WCI  29
STERLING*        N/A    N/A N/A N/A MISG        N/A
SAVANNA*       PTCLDY    31  25  81 S7        29.96F WCI  24
$$

ILZ003-004-008-010-011-017-018-200900-
NORTH CENTRAL ILLINOIS

CITY           SKY/WX    TMP DP  RH WIND       PRES   REMARKS
ROCKFORD       CLOUDY    29  23  78 S8        30.00F WCI  21
FREEPORT*      CLOUDY    31  24  75 S14       29.97F WCI  20
ROCHELLE*      CLOUDY    27  24  87 S7        30.00F WCI  20
DE KALB*       CLOUDY    28  24  86 S13       30.00S WCI  17
PERU*          PTCLDY    32  23  70 SW9       30.03S WCI  24
$$

ILZ005-006-012>014-019>023-200900-
NORTHEAST ILLINOIS

CITY           SKY/WX    TMP DP  RH WIND       PRES   REMARKS
CHICAGO-OHARE  CLOUDY    31  22  69 SW8       30.00F WCI  23
CHICAGO-MIDWAY PTCLDY    32  23  69 SW9       30.02F WCI  24
AURORA         CLOUDY    27  22  81 S6        30.02F WCI  20
LANSING*       PTCLDY    30  24  79 SW12      30.04F WCI  20
JOLIET*        CLOUDY    31  25  77 S6        30.04F WCI  25
WAUKEGAN       CLEAR     31  23  72 SW10      29.97F WCI  22
DUPAGE AIRPORT CLOUDY    27  23  85 S7        30.01F WCI  19
KANKAKEE*      PTCLDY    30  23  74 S3        30.07F
WHEELING       PTCLDY    31  23  72 S7        30.01F WCI  24
MORRIS*        CLOUDY    32  24  73 SW9       30.03S WCI  24
ROMEOVILLE*    CLOUDY    29  24  79 S8        30.03F WCI  22
NORTHERLY ISL    N/A     33  22  64 SW9         N/A  WCI  25
$$

LMZ740>746-200900-
SOUTHERN LAKE MICHIGAN

STATION/POSITION SKY/WX   TEMP    WIND        PRES    VSBY  WAVE
                          AIR SEA DIR/SP/G                  HT/PER
                          (F)     (DEG/KT/KT) (MB)    (MI)  (FT/S)
SOUTHERN BUOY              40 49  270/ 23/ 27 1015.6          5/ 5
HARRISON CRIB              37     240/ 23/ 25   N/A
BURNHAM HARBOR             33     250/  6/ 11   N/A
CALUMET HARBOR             33     220/  6/ 10 1016.3F
BURNS HARBOR               33     220/ 11/ 15 1017.6F
MICHIGAN CITY              32     200/ 14/ 16   N/A
$$

ILZ025>027-034>036-040-047-049-050-058-095>099-200900-
WEST-CENTRAL ILLINOIS

CITY           SKY/WX    TMP DP  RH WIND       PRES   REMARKS
QUINCY         CLEAR     34  25  69 S13       30.05F WCI  25
GALESBURG*     CLOUDY    33  26  77 S12G18    30.01F WCI  24
MACOMB*        CLEAR     34  26  71 S12       30.05S WCI  25
JACKSONVILLE*  CLEAR     33  23  65 S12       30.08F WCI  25
PITTSFIELD*    CLOUDY    34  24  67 S10       30.09F WCI  26
$$

ILZ028>032-037-038-041>044-048-051>054-059>061-200900-
CENTRAL ILLINOIS

CITY           SKY/WX    TMP DP  RH WIND       PRES   REMARKS
PONTIAC        CLOUDY    33  25  73 S12       30.06F WCI  24
BLOOMINGTON    CLOUDY    32  24  72 SW13      30.07F WCI  22
DECATUR        PTCLDY    31  23  72 SW12      30.11F WCI  22
PEORIA         CLOUDY    31  24  75 S10       30.05F WCI  22
LACON*         PTCLDY    34  23  65 SW8       30.03F WCI  27
LINCOLN*       PTCLDY    32  26  77 S6        30.09F WCI  26
SPRINGFIELD    CLEAR     34  24  67 S13       30.10F WCI  25
TAYLORVILLE    CLOUDY    30  23  75 S10       30.13F WCI  21
$$

ILZ033-039-045-046-055>057-062-063-200900-
EAST-CENTRAL ILLINOIS

CITY           SKY/WX    TMP DP  RH WIND       PRES   REMARKS
CHAMPAIGN      CLOUDY    30  24  78 S10       30.11F WCI  21
DANVILLE*      CLOUDY    28  24  83 S5        30.09F WCI  23
RANTOUL*       CLOUDY    32  26  78 SW7       30.10F WCI  26
MATTOON        CLEAR     31  22  69 S7        30.13F WCI  24
PARIS*         CLOUDY    29  25  82 S8        30.15F WCI  22
$$

ILZ079-100>102-200900-
SOUTHWEST ILLINOIS

CITY           SKY/WX    TMP DP  RH WIND       PRES   REMARKS
ALTON          CLEAR     31  24  76 S9        30.15F WCI  23
BELLEVILLE     CLEAR     29  20  69 S6        30.16F WCI  23
CAHOKIA*       CLEAR     25  21  85 CALM      30.17S
SPARTA*        CLEAR     32  22  65 S12       30.21R WCI  23
$$

ILZ064>066-069>071-074>076-080>082-084>086-088>090-092>094-200900-
SOUTH-CENTRAL ILLINOIS

CITY           SKY/WX    TMP DP  RH WIND       PRES   REMARKS
CARBONDALE     CLEAR     27  24  89 S3        30.22F
CAIRO*         CLOUDY    27  26  96 CALM      30.24F
EFFINGHAM*     CLEAR     29  23  78 S5        30.18F WCI  24
MARION         CLEAR     29  22  76 S6        30.22F WCI  22
MT. VERNON     CLEAR     22  21  96 CALM      30.20F
CENTRALIA*     CLEAR     30  24  76 CALM      30.18S
SALEM*         CLEAR     31  21  66 S5        30.18S WCI  26
METROPOLIS*    CLOUDY    25  24  94 CALM      30.25S
$$

ILZ067-068-072-073-078-083-087-091-200900-
SOUTHEAST ILLINOIS

CITY           SKY/WX    TMP DP  RH WIND       PRES   REMARKS
LAWRENCEVILLE  CLOUDY    28  22  78 S6        30.21R WCI  22
FLORA*         CLEAR     27  23  84 S6        30.16S WCI  21
FAIRFIELD*     CLEAR     26  23  89 CALM      30.20F
HARRISBURG*    CLEAR     25  24  96 CALM      30.23F
ROBINSON*      CLOUDY    24  21  87 CALM      30.21R
CARMI*         CLEAR     25  23  91 S3        30.21F
$$

ABBREVIATIONS USED IN REMARKS
   TC - TEMPERATURE IN CELSIUS
  WCI - WIND CHILL INDEX
   HX - HEAT INDEX
  VSB - VISIBILITY
$$




USA.gov is the U.S. government's official web portal to all federal, state and local government web resources and services.